"2010/01/01"," *"," *"," *"
"2010/01/02"," *"," *"," *"
"2010/01/03"," *"," *"," *"
"2010/01/04"," *"," *"," *"
"2010/01/05"," *"," *"," *"
"2010/01/06"," *"," *"," *"
"2010/01/07"," *"," *"," *"
"2010/01/08"," *"," *"," *"
"2010/01/09", 5.7, 6.5, 5.2
"2010/01/10", 5.7, 6.7, 5.0
"2010/01/11", 5.3, 5.8, 4.9
"2010/01/12", 4.8, 5.0, 4.6
"2010/01/13", 4.9, 5.2, 4.5
"2010/01/14", 4.5, 5.2, 3.7
"2010/01/15", 4.1, 4.7, 3.5
"2010/01/16", 3.8, 4.4, 3.1
"2010/01/17", 3.9, 4.7, 3.3
"2010/01/18", 4.2, 4.7, 3.9
"2010/01/19", 4.3, 5.0, 3.7
"2010/01/20", 4.7, 5.5, 4.3
"2010/01/21", 5.7, 6.4, 4.8
"2010/01/22", 5.5, 6.2, 4.8
"2010/01/23", 5.5, 6.0, 4.9
"2010/01/24", 5.5, 6.2, 4.8
"2010/01/25", 5.4, 5.9, 5.2
"2010/01/26", 5.9, 6.8, 5.1
"2010/01/27", 5.6, 6.3, 5.1
"2010/01/28", 6.1, 6.7, 5.6
"2010/01/29", 6.1, 6.5, 5.8
"2010/01/30", 6.1, 7.4, 5.5
"2010/01/31", 6.7, 7.5, 5.9
"2010/02/01", 6.8, 7.4, 5.6
"2010/02/02", 5.6, 6.2, 4.9
"2010/02/03", 5.6, 6.1, 5.1
"2010/02/04", 5.1, 6.0, 4.0
"2010/02/05", 5.5, 5.9, 4.9
"2010/02/06", 5.0, 5.4, 4.3
"2010/02/07", 4.6, 5.4, 3.8
"2010/02/08", 5.0, 6.1, 4.1
"2010/02/09", 5.7, 6.4, 5.1
"2010/02/10", 5.9, 6.6, 5.6
"2010/02/11", 5.6, 6.1, 5.0
"2010/02/12", 4.9, 5.2, 4.5
"2010/02/13", 4.7, 4.9, 4.3
"2010/02/14", 4.6, 5.7, 3.8
"2010/02/15", 5.3, 5.5, 5.1
"2010/02/16", 4.7, 5.2, 4.4
"2010/02/17", 4.4, 4.6, 4.0
"2010/02/18", 4.2, 4.6, 3.7
"2010/02/19", 4.3, 4.9, 3.9
"2010/02/20", 4.9, 6.4, 4.2
"2010/02/21", 5.6, 6.9, 4.8
"2010/02/22", 5.7, 6.4, 5.0
"2010/02/23", 6.1, 7.6, 5.4
"2010/02/24", 6.9, 7.7, 6.2
"2010/02/25", 7.1, 8.6, 6.3
"2010/02/26", 9.5,10.8, 8.1
"2010/02/27", 8.6, 9.5, 8.0
"2010/02/28", 7.5, 8.2, 7.0
"2010/03/01", 7.7, 8.3, 7.1
"2010/03/02", 7.2, 7.5, 6.8
"2010/03/03", 7.4, 9.4, 6.2
"2010/03/04", 7.6, 8.4, 7.3
"2010/03/05", 8.4, 9.9, 7.5
"2010/03/06", 9.1, 9.7, 8.5
"2010/03/07", 8.2, 8.6, 7.7
"2010/03/08", 7.5, 8.4, 6.4
"2010/03/09", 7.1, 7.6, 6.1
"2010/03/10", 6.8, 7.1, 6.3
"2010/03/11", 7.6, 9.1, 6.4
"2010/03/12", 8.0, 9.1, 7.0
"2010/03/13", 8.9, 9.8, 7.9
"2010/03/14", 9.2,10.6, 8.6
"2010/03/15", 9.4,10.8, 8.9
"2010/03/16",10.4,11.7, 9.5
"2010/03/17",10.1,10.5, 9.7
"2010/03/18", 9.9,11.0, 9.2
"2010/03/19", 9.6,10.9, 8.7
"2010/03/20",10.9,13.2, 9.3
"2010/03/21",12.4,13.3,10.6
"2010/03/22",10.8,11.7, 9.7
"2010/03/23",10.9,11.2,10.4
"2010/03/24",10.2,10.7, 9.5
"2010/03/25", 8.6, 9.5, 8.0
"2010/03/26", 8.6, 9.5, 7.8
"2010/03/27", 9.2,10.4, 7.8
"2010/03/28", 9.0, 9.6, 8.4
"2010/03/29", 8.1, 8.7, 7.2
"2010/03/30", 7.7, 9.9, 5.3
"2010/03/31", 8.8, 9.6, 8.4
"2010/04/01",10.0,11.4, 8.8
"2010/04/02",11.6,12.6,11.1
"2010/04/03",11.3,12.1,10.8
"2010/04/04",10.6,11.0,10.0
"2010/04/05",10.4,11.1, 9.8
"2010/04/06",10.9,12.5,10.6
"2010/04/07",10.9,11.3,10.3
"2010/04/08",10.5,11.2, 9.2
"2010/04/09",10.9,12.3, 9.9
"2010/04/10",11.7,13.5,11.1
"2010/04/11",12.9,16.2,11.7
"2010/04/12",11.6,13.6,10.1
"2010/04/13",10.8,11.7, 9.7
"2010/04/14",12.3,13.5,11.4
"2010/04/15",11.6,12.3,10.8
"2010/04/16",10.4,11.3, 8.7
"2010/04/17", 9.2,10.1, 8.4
"2010/04/18",10.3,12.6, 8.5
"2010/04/19",11.6,12.8,10.7
"2010/04/20",12.2,12.7,11.9
"2010/04/21",13.1,16.7,11.9
"2010/04/22",12.0,13.5,10.6
"2010/04/23",10.7,11.1,10.0
"2010/04/24",11.9,13.9, 9.9
"2010/04/25",12.6,14.2,11.8
"2010/04/26",13.2,14.8,12.1
"2010/04/27",12.6,12.9,12.4
"2010/04/28",12.7,13.1,12.4
"2010/04/29",13.7,15.7,12.6
"2010/04/30",14.5,16.4,13.2
"2010/05/01",15.1,16.4,14.0
"2010/05/02",15.7,17.9,14.9
"2010/05/03",14.9,15.9,14.4
"2010/05/04",15.2,15.6,15.0
"2010/05/05",16.3,18.8,15.0
"2010/05/06",17.0,18.8,15.7
"2010/05/07",17.9,18.6,17.4
"2010/05/08",17.9,19.0,17.2
"2010/05/09",18.5,20.8,17.5
"2010/05/10",18.5,19.5,17.4
"2010/05/11",18.4,18.7,18.1
"2010/05/12",18.1,18.9,17.5
"2010/05/13",18.4,20.2,16.4
"2010/05/14",18.7,20.0,17.8
"2010/05/15",18.2,18.9,17.3
"2010/05/16",18.2,19.2,17.2
"2010/05/17",19.1,21.8,18.0
"2010/05/18",19.4,20.6,18.6
"2010/05/19",19.7,20.3,19.4
"2010/05/20",19.4,19.7,19.1
"2010/05/21",19.9,22.7,19.3
"2010/05/22",20.7,22.1,19.8
"2010/05/23",20.2,20.7,19.3
"2010/05/24",19.4,19.7,19.0
"2010/05/25",20.5,21.7,19.4
"2010/05/26",20.1,21.2,19.0
"2010/05/27",19.3,21.3,18.2
"2010/05/28",19.9,20.9,19.2
"2010/05/29",18.9,19.7,18.2
"2010/05/30",18.2,18.7,17.7
"2010/05/31",18.7,20.9,17.2
"2010/06/01",19.0,20.5,17.7
"2010/06/02",19.7,21.7,18.6
"2010/06/03",20.4,23.2,19.2
"2010/06/04",20.6,21.9,19.8
"2010/06/05",20.9,21.9,20.3
"2010/06/06",21.1,22.9,20.0
"2010/06/07",21.6,23.9,20.7
"2010/06/08",21.5,22.0,20.9
"2010/06/09",20.7,21.2,20.3
"2010/06/10",21.2,22.6,19.8
"2010/06/11",22.0,23.9,21.3
"2010/06/12",22.1,23.8,21.6
"2010/06/13",22.5,23.4,21.4
"2010/06/14",22.2,22.8,21.2
"2010/06/15",22.5,25.1,20.6
"2010/06/16",23.1,23.5,22.4
"2010/06/17",24.2,26.6,22.9
"2010/06/18",23.4,24.2,23.1
"2010/06/19",23.9,25.1,23.2
"2010/06/20",24.2,24.5,23.8
"2010/06/21",24.1,24.5,23.7
"2010/06/22",24.9,26.8,24.0
"2010/06/23",25.0,25.6,24.7
"2010/06/24",25.0,26.0,24.4
"2010/06/25",25.6,27.5,24.7
"2010/06/26",25.0,25.5,24.8
"2010/06/27",25.4,25.7,24.9
"2010/06/28",26.0,26.7,25.3
"2010/06/29",26.2,26.8,25.7
"2010/06/30",25.4,25.7,25.0
"2010/07/01",26.3,28.2,25.1
"2010/07/02",26.8,27.8,26.3
"2010/07/03",26.2,26.4,26.0
"2010/07/04",26.4,27.7,25.7
"2010/07/05",26.9,27.8,26.2
"2010/07/06",26.9,27.7,26.2
"2010/07/07",26.8,27.3,26.4
"2010/07/08",26.7,27.8,26.2
"2010/07/09",26.8,27.1,26.5
"2010/07/10",26.5,27.0,25.9
"2010/07/11",26.8,28.2,26.0
"2010/07/12",26.8,27.3,26.2
"2010/07/13",25.7,26.6,24.2
"2010/07/14",25.6,26.8,24.1
"2010/07/15",26.2,26.8,25.8
"2010/07/16",26.3,26.7,25.9
"2010/07/17",26.7,27.6,26.2
"2010/07/18",26.9,27.4,26.5
"2010/07/19",27.1,27.4,26.5
"2010/07/20",27.6,28.8,26.7
"2010/07/21",29.1,31.1,28.0
"2010/07/22",29.5,31.4,28.5
"2010/07/23",30.0,32.1,29.1
"2010/07/24",30.8,33.0,29.7
"2010/07/25"," *"," *"," *"
"2010/07/26"," *"," *"," *"
"2010/07/27",30.3,30.6,29.9
"2010/07/28",30.1,30.7,29.5
"2010/07/29",28.6,29.6,27.6
"2010/07/30",28.0,28.6,27.3
"2010/07/31",29.1,31.3,27.8
"2010/08/01",29.3,30.5,28.7
"2010/08/02",29.3,29.9,28.9
"2010/08/03",29.6,30.4,28.8
"2010/08/04",29.5,29.9,28.8
"2010/08/05",29.4,29.8,28.6
"2010/08/06",29.6,30.5,28.6
"2010/08/07",29.0,29.6,28.4
"2010/08/08",29.2,30.1,28.5
"2010/08/09",29.1,29.6,28.6
"2010/08/10",29.0,29.7,28.3
"2010/08/11",29.4,29.8,28.8
"2010/08/12",28.7,29.4,28.3
"2010/08/13",28.6,29.2,28.3
"2010/08/14",28.5,29.6,27.9
"2010/08/15",28.6,29.0,28.2
"2010/08/16",29.8,32.4,28.4
"2010/08/17",30.2,31.7,29.2
"2010/08/18",30.3,31.5,29.6
"2010/08/19",29.4,30.1,28.6
"2010/08/20",28.8,29.7,27.7
"2010/08/21",29.3,30.9,28.2
"2010/08/22",29.0,29.3,28.8
"2010/08/23",29.3,31.1,28.3
"2010/08/24",29.6,30.1,29.2
"2010/08/25",29.8,32.1,28.7
"2010/08/26",30.4,32.3,28.7
"2010/08/27",30.7,32.3,29.8
"2010/08/28",30.1,31.0,29.7
"2010/08/29",30.4,32.1,28.8
"2010/08/30",30.5,32.2,29.8
"2010/08/31",30.6,31.5,29.8
"2010/09/01",30.9,32.7,29.8
"2010/09/02",30.7,32.2,30.1
"2010/09/03",29.9,30.3,29.3
"2010/09/04",30.2,31.9,29.0
"2010/09/05",30.4,31.9,29.5
"2010/09/06",30.0,30.4,29.2
"2010/09/07",29.4,29.9,28.5
"2010/09/08",28.4,29.4,26.3
"2010/09/09",26.5,27.4,25.5
"2010/09/10",26.6,28.9,24.9
"2010/09/11",26.9,28.9,26.5
"2010/09/12",26.7,27.4,26.4
"2010/09/13",27.4,28.7,26.0
"2010/09/14",27.3,28.1,26.5
"2010/09/15",26.0,26.5,25.5
"2010/09/16",24.6,25.5,23.5
"2010/09/17",25.1,26.1,24.1
"2010/09/18",25.9,26.9,25.0
"2010/09/19",26.1,27.4,25.2
"2010/09/20",26.1,26.5,25.8
"2010/09/21",26.7,28.3,25.5
"2010/09/22",27.7,29.4,26.6
"2010/09/23",24.8,27.0,22.2
"2010/09/24",22.2,23.2,20.8
"2010/09/25",20.7,21.5,20.1
"2010/09/26",21.2,22.4,20.1
"2010/09/27",20.7,21.4,20.3
"2010/09/28",20.6,20.8,20.2
"2010/09/29",21.2,22.2,20.6
"2010/09/30",21.0,21.5,20.6
"2010/10/01",21.1,21.9,20.3
"2010/10/02",21.4,22.2,20.7
"2010/10/03",21.2,21.8,20.4
"2010/10/04",21.4,22.0,21.0
"2010/10/05",22.1,23.1,21.4
"2010/10/06",22.1,23.1,21.4
"2010/10/07",21.7,22.2,21.2
"2010/10/08",21.3,21.9,20.5
"2010/10/09",20.6,21.2,20.1
"2010/10/10",20.7,21.4,20.3
"2010/10/11",21.1,22.0,20.8
"2010/10/12",21.2,21.5,21.1
"2010/10/13",21.4,22.0,20.9
"2010/10/14",21.3,21.7,21.0
"2010/10/15",21.5,22.6,20.7
"2010/10/16",21.7,22.3,21.2
"2010/10/17",21.2,21.7,20.6
"2010/10/18",20.6,21.2,20.0
"2010/10/19",19.8,20.3,18.8
"2010/10/20",19.2,19.8,18.7
"2010/10/21",19.3,19.6,18.9
"2010/10/22",19.0,19.5,18.3
"2010/10/23",18.2,19.1,16.5
"2010/10/24",18.2,18.8,17.5
"2010/10/25",18.5,18.9,18.1
"2010/10/26",18.4,18.9,17.1
"2010/10/27",16.5,17.2,15.8
"2010/10/28",15.0,16.1,14.3
"2010/10/29"," *"," *"," *"
"2010/10/30",14.7,15.1,14.1
"2010/10/31",15.2,15.7,14.8
"2010/11/01",15.5,15.8,15.3
"2010/11/02",15.2,15.5,15.0
"2010/11/03",14.9,15.6,14.4
"2010/11/04",13.8,14.5,13.4
"2010/11/05",14.3,15.8,13.1
"2010/11/06",14.9,15.9,14.3
"2010/11/07",14.9,15.5,14.6
"2010/11/08",14.8,15.1,14.4
"2010/11/09",14.9,15.5,13.9
"2010/11/10"," *"," *"," *"
"2010/11/11"," *"," *"," *"
"2010/11/12",14.1,14.6,13.9
"2010/11/13",14.3,14.9,13.6
"2010/11/14",14.3,14.6,14.0
"2010/11/15",13.6,14.0,12.5
"2010/11/16",12.4,13.3,11.4
"2010/11/17",12.0,12.8,11.3
"2010/11/18",12.0,12.7,11.2
"2010/11/19",11.7,12.3,10.6
"2010/11/20",11.9,12.7,11.4
"2010/11/21",12.9,13.7,12.1
"2010/11/22",13.6,14.3,13.1
"2010/11/23",13.6,14.0,12.7
"2010/11/24",12.3,13.0,11.6
"2010/11/25",12.3,12.9,11.4
"2010/11/26",12.6,12.9,12.5
"2010/11/27",12.3,12.6,11.8
"2010/11/28",12.2,12.8,11.6
"2010/11/29",12.0,12.4,11.6
"2010/11/30",11.9,12.9,11.2
"2010/12/01",11.9,12.3,11.7
"2010/12/02",12.3,13.1,11.6
"2010/12/03",13.5,15.2,12.5
"2010/12/04",12.7,13.4,12.0
"2010/12/05",12.3,13.2,11.4
"2010/12/06",12.6,13.0,12.2
"2010/12/07",12.4,12.7,11.7
"2010/12/08",11.1,11.9,10.1
"2010/12/09",10.8,11.3, 9.9
"2010/12/10",10.8,11.7,10.1
"2010/12/11",11.1,11.5,10.6
"2010/12/12",11.1,11.6,10.6
"2010/12/13",10.3,11.0, 9.8
"2010/12/14",10.0,10.4, 9.7
"2010/12/15",10.2,10.7, 9.8
"2010/12/16", 8.8, 9.6, 8.0
"2010/12/17", 8.6, 9.4, 7.6
"2010/12/18", 8.6, 9.4, 8.1
"2010/12/19", 8.1, 8.8, 7.0
"2010/12/20", 8.6, 9.0, 7.9
"2010/12/21", 8.8, 9.2, 8.3
"2010/12/22", 9.4, 9.9, 8.9
"2010/12/23", 9.5,10.3, 8.9
"2010/12/24", 9.0, 9.5, 8.6
"2010/12/25", 8.3, 8.7, 7.9
"2010/12/26", 7.9, 8.4, 7.4
"2010/12/27", 7.6, 8.0, 7.2
"2010/12/28", 7.3, 7.9, 6.8
"2010/12/29", 7.3, 7.8, 6.9
"2010/12/30", 6.5, 7.2, 5.9
"2010/12/31", 6.5, 6.8, 5.7
